Вернуться в каталог

SL-16 DEB

АктивенPO
NORAD 28437·DEBRIS·🇷🇺 Russia

Запущен Dec 10, 2001 с Baikonur Cosmodrome

Loading…

Ближайшие Пролёты (ближайшие 24 часа)

TLE

СвежийSource: Space-Track

Эпоха: Sep 14, 2026, 14:09 UTC

1 28437U 01056L   26257.59009644  .00000116  00000-0  30859-3 0  9991
2 28437  99.4655 160.6039 0201774 359.9654 116.8233 13.27649889199135

Отслеживайте SL-16 DEB в реальном времени с AllMySat

Download on the App Store